[Date Prev][Date Next][Thread Prev][Thread Next][Date Index][Thread Index]

[jamsat-news:1572] jas2info #239


========================   最新情報   ==============================

        Last updated :WED.22AUG2001  12:30(JST)   #239
        
====================================================================
   
  1)アマチュア通信衛星情報、FOシリーズの軌道要素、テレメトリ、QSOの
   状況等をまとめてみました.
   
   FO−29の2001年8月22日(水)の9:50(JST)のパスでは
  JARLのホームページのとうりアナログ運用でした。 今日までの観測した
  テレメトリーと最終の分析結果を掲載しておきます.

AS24756C   22AUG2001
9:50-9:53(JST)
FREQ.435.792-790MHz

HI HI AE C7 88 55 00 D4 BE F5 09 01 98 43 6E 65 9E 9C B0 5D 9B 99 9E 9E 9B 
HI HI AE C7 88 55 00 D4 BE F5 09 01 98 40 70 65 9E 9C B0 7A 9B 99 9E 9E 9B 
HI HI AE C7 88 55 00 D4 BE F5 09 01 98 3D 72 65 9E 9C B0 5E 9B 99 9E 9E 9B 
HI HI AE C7 88 55 00 D4 BE F5 09 01 98 3B 73 65 9E 9C B0 4E 9B 99 9E 9E 9B 
HI HI AE C7 88 55 00 D4 BE F5 09 01 97 38 73 65 9E 9C B0 7C 9B 99 8E 9E 9B 
 
AS24729C  20AUG2001
9:43-9:57(JST)
FREQ.435.802-.791MHz
                                                   
HI HI AE C7 88 55 00 D4 BB AB 05 5D 59 59 62 64 9D 9A B0 76 9C 9D 9B 9A 99 
HI HI AE C7 88 55 00 D4 BB AB 09 4D 57 5C 61 64 9D 9A B0 8D 9C 9D  B 9A 99 
HI HI AE C7 88 55 00 D4 BB AB 09 4D 54 5F 61 64 9D 9A B0 94 9D 9D 9B 9A 99
HI HI AE C7 88 55 00 D4 BB AB 09 4D 51 61 5F 64 9D 9A B0 78 9D 9D 9B 9A 99
HI HI AE C7 88 55 00 D4 BB AB 09 4D 4E 63 5F 64 9D 9B B0 73 9D 9D 9B 9A 99 
HI HI AE C7 88 55 00 D4 BB AB 09 4D 4A 64 5F 64 9D 9B B0 6E 9D 9D 9A 9A 99 
HI HI AE C7 88 55 00 D4 BB AB 09 4D 4c 65 60 64 9D 9B B0 6E 9D 9D 9A 9A 99                  
HI HI AE C7 88 55 0O D4 BB AT 09 4D 4E 66 61 65 9D 9B B0 6D 9D 9D 9A 9A 99 
HI HI AE C7 88 55 00 D4 BB AB 09 4D 3F 66 61 65 9D 9B B0 7A 9D 9D 9A 9A 99
HI HI AE C7 88 55 00 D4 BB AB 09 4D 3B 65 61 65 9D 9B B0    9D 9D 9A 9A 99
HI HI AE C7 88 55 00 D4 BB AB 09 4D 38 65 5E 65 9D 9B B0 61 9D 9D 9A 9A 99
HI HI AE C7 88 55 00 D4 BB AB 09 4D 35 64 62 65 9E 9B B0 8C 9E 9D 9A 9A 99
HI HI AE C7 88 55 00 D4 BB AB 08 4D 33 62 65 65 9E 9B B0 5C 9E 9D 9A 9A 99
HI HI AE C7 88 55 00 D4 BB AB 09 4D 3  61 67 65 9E 9B B0 72 9E 9D 9A 9A 9A 
HI HI AE C7 88 55 09 D4 BB AB 09 4D 32 5F 69 66 9E 9B B0    9E 9D 9A 9A 9A   
HI HI AE C7 88 55 00 D4 BB AB 09 4D       66 64 9E 9B B0    9E 9D 9A 9A 9A  
HI HI AE C7 88 55 00 D4 BB AB 09 4D 30 5E 6B 65 9E 9B B0 9B 9E 9D 9A 99 9A 
HI HI AE C7 88 55 00 D4 BB AB 09 4D 31 5D 6D 65 9E 9B B0 47 9E 9D 9A 9A 9A
HI HI AE C7 88 55 00 D4 BB AB 09 4D 43 59 70 65 9E 9B B0 55 9E 9D 9A 99 9A 
HI HI AE C7 88 55 00 D4 BB AB 07 4D 36 5E 74 65 9E 9B B0 4D 8E 9D 9A 99 9A 

AS24599C1   10AUG2001
19:32-19:47(JST)
FREQ.435.804-.788MHz

HI HI AE C7 88 55 00 D4 C8 9E 09 0A 83 4C 43 67 99 97 A6 87 9F 9B 9E A1 9E 
HI HI AE C7 88 55 00 D4 C8 9E 09 0A 7D 43 44 67 98 96 A8 83 9F 9B 9E A1 9E 
HI HI AE C7 88 55 00 D4 C8 9E 09 0A 76 3D 4D 63 9A 97 B0 8B 9F 9B 9E A1 9E 
HI HI AE C7 88 55 00 D4 C8 9E 09 0A 6D 38 4F 63 9B 98 B0 8C 9F 9B 9E A1 9E 
HI HI AE C7 88 55 00 S4 F8 9E 09 0A 63 35 54 64 9C 99 B0 7F 9F 9B 9E A1 9E 
HI HI AE C7 88 55 00 D4 C8 9E 09 0A 5A 35 58 64 9C 9A B0 7F 9F 9B 9E A1 9E  
HI HI AE C7 88 55  0 D4 C8 9E 09 0A 50 37 5B 64 9D 9A B0 7E 9F 9B 9E A1 9E 
HI HI AE C7 88 55 00 D4 C8 9E 09 0A 47 3B 5E 64 9D 9A B0 7E 9F 9B 9E A1 9E 
HI HI AE C7 88 55 00 D4 C8 9E 09 0A 4  40 66 64 9D 9B B0 7E 9F 9B 9E A1 9E 
HI HI AE C7 88 55 00 D4 C8 9E 09 0A 35 48    65 9D 9B B0 76 9F 9B 9E A1 9E 
HI HI AE C7 88 55 00 D4 7D 9E 08 1A          65 9E 9B B0 76 9F 9B 9E A1 9E 
HI HI AE C7 88 55 00 D4 C8 9E 09 0A 55 59 6F 65 9E 9B B0    9F 9B 9E A1 9E 
HI HI AE C7 88 55 00 D4 C8 9E 09 0A 51 56 6A 66 9E 9B B0 7F 9F 9B 9E A1 9E 
HI HI AE C7 88 55 00 D4 C8 8E 09 0A 38 68 6D 64 9E 9B B0 7D 9E 9B 9F A1 9E 
HI HI AE C7 88 55 00 D4 7D B2 09 0A 55 68 65 63 9E 9B B0 89 9E 9B 9F A1 9E
HI HI AE C7 88 55 00 D5 C8 B2 09 0A 40 72 65    9E 9B B0 9O 9F 9B 9E A0 9E
HI HI AE C7 88 55 00 D4 C8 9E 09 0A 45 75 65 65 9E 9B B0 88 9F 6B 9D A0 9E 
HI HI AE C7 88 55 00 D4 7D B2 09 0B 4A 75 66 64 9E 9B B0 63 9F 9B 9D A0 9E 
HI HI AE C7 78 55 00 D4 7D B2 09 0B 4E 74 69 65 9E 9B B0 74 9F 9B 9D A0 9E 
HI HI AE C7 88 55 00 D4 7D B2 09 0B 51 71 6C 65 9E 9B B0 76 9F 9B 9D A0 9E 
HI HI AE C7 88 55 00 D4 7D B2 09 0B 53 6E 6B 65 9E 9B B0    9E 

AS24586C   09AUG2001
11:30-11:44(JST)
FREQ.435.805-.786MHz

HI HI AE C7 88 55 00 D4 72 9B 09 09 78 23 55 65 9E 9B B0 AD 9C 9D A1 9E 9E 
HI HI AE C7 88 55 00 D4 72 9B 09 09 75 25 55    9D 9B B0 80  D 9D A2 9E 9D 
HI HI AE C7 88 55 00 D4 72 9B 09 09 75 27    65 9E 9B B0 87 9D 9D A1 9E 9D 
HI HI AE C7 88 55 00 D4 72 9B 96 09 6E       65 9E 9B B0 87 9D 9D A1 9E 9D 
EI II AE C7 88 55 00 D4 72 9B 09 09 6C 2D    65 9E 9B B0 7E 9D 9C A1 9E 9D 
HI HI AE C7 88 55 00 D4 72 9B 09 09 6A 33    65 9D 9B B0 83 9D 9B A1 9E 9D 
HI HI AE C7 88 55 00 E4 72 9B 09 09 68    7D 65 9E 9B B0 79 9D 9D A1 9E 9D 
HI HI AE C7 88 55 00 D4 72 9B 09 09 67 3D 64 65 9E 9B B0 7F 9D 9C A0 9E 9D 
HI HI AE C7 88 55 00 D4 72 9B 09 09 67          9E 9B B0    9D 9C A0 9E 9D
HI HI AE C7 88 55 00 D4 72 9B 09 09 68 48 68 65 9E 9B B0    9D 9B A0 9E 9D 
HI HI AE C7 88 55 00 D4 72 9B 09 09    4E 6D 65 9E 9B B0 70 8D 9B A0 9E 9D
HI HI AE C7 88 55 00 D4 72 9B 09 09 6B 53 6C 65 9E 9B B0 70 9D 9B A0 9E 9D 
HI HI AE C7 88 55 00 D4 72 9B 09 09 56 57 6D 65 9E 9B B0 5D 9D 9C A0 9E 9D 
HI HI AE C7 88 55 00 D4 72 9B 09 09 72 5B 6E 65 9E 9B B0 6A 9D 9C A0 9E 9D 
HI HI AE C7 88 55 00 D4 72 9B 09 09 76 5E 6D 64 9E 9B B0 88 9D 9B 9F 9F 9D 
HI HI AE C7 88 55 00 D4 72 9B 09 09 7A 60 6E 65 9E 9B B0 85 9E 9B 9F 9F 9D 
HI HI AE C7 88 55 00 D4 72 9B 09 09 7F 61 6E 65 9E 9B B0 5D 9E 9B 9F 9F 9D 
HI HI AE C7 88 55 00 D4 72 9B 87  ------------------------ FO-29の軌道要素 ------------------------------        
 
  ■ 軌道要素1:「jamsat−keps:1026」より         
          SB KEPS @ AMSAT  $ORB01221.N
          2Line Orbital Elements 01221.AMSAT

HR AMSAT ORBITAL ELEMENTS FOR AMATEUR SATELLITES IN NASA FORMAT
FROM WA5QGD FORT WORTH,TX August 9, 2001
SEND SUBSCRIBE/UNSUBSCRIBE TO majordomo@amsat.org ONLY
BID: ORB01221.N

 DECODE 2-LINE ELSETS WITH THE FOLLOWING KEY:
 1 AAAAAU 00  0  0 BBBBB.BBBBBBBB  .CCCCCCCC  00000-0  00000-0 0  DDDZ
 2 AAAAA EEE.EEEE FFF.FFFF GGGGGGG HHH.HHHH III.IIII JJ.JJJJJJJJKKKKKZ
 KEY: A-CATALOGNUM B-EPOCHTIME C-DECAY D-ELSETNUM E-INCLINATION F-RAAN
 G-ECCENTRICITY H-ARGPERIGEE I-MNANOM J-MNMOTION K-ORBITNUM Z-CHECKSUM

FO-29
1 24278U 96046B   01220.63781453  .00000013  00000-0  51455-4 0 04533
2 24278 098.5353 078.7186 0350153 225.8970 131.2867 13.52778017245735

 ■ 軌道要素2:「jamsat−keps:1025」より
        SB KEPS @ AMSAT  $ORB01221.O
        Orbital Elements  01221.OSCAR

HR AMSAT ORBITAL ELEMENTS FOR OSCAR SATELLITES
FROM WA5QGD FORT WORTH,TX August 9, 2001
SEND SUBSCRIBE/UNSUBSCRIBE TO majordomo@amsat.org ONLY
BID: ORB01221.O
TO ALL RADIO AMATEURS BT
 
Satellite: FO-29
Catalog number: 24278
Epoch time:      01220.63781453
Element set:    0453
Inclination:      098.5353 deg
RA of node:       078.7186 deg
Eccentricity:    0.0350153
Arg of perigee:   225.8970 deg
Mean anomaly:     131.2867 deg
Mean motion:   13.52778017 rev/day
Decay rate:        1.3e-07 rev/day^2
Epoch rev:           24573
Checksum:              313

-------------------  FO-29(JAS-2)のテレメトリに関する情報  ---------------------- 
 
2)上記8月22日(水)のテレメトリの最終行を分析しておきます.

AS24756C   22AUG2001
9:50-9:53(JST)
FREQ.435.792-790MHz

HI HI AE C7 88 55 00 D4 BE F5 09 01 97 38 73 65 9E 9C B0 7C 9B 99 8E 9E 9B 

テレメトリ   内 容       換算算値 単 位
3C	磁気センサーZ軸=	74019.6	[nT]
3D	磁気センサX軸	=	27451.0	[nT]
4A	太陽電池発生電流=	 1127.5	[mA]
4B	B充放電電流	=	 -20.4	[mA]
4C	B端子電圧	=	   17.0	[V]
4D	B中間端子電圧	=	    7.5	[V]
5A	バス電圧	=	   17.3	[V]
5B	JTA送信電力	=	  707.9	[mW]
5C 	構体温度1	=	   21.7	[℃]
5D	構体温度2	=	   22.5	[℃]
6A	構体温度3	=	   26.7	[℃]
6B	構体温度4	=	   20.5	[℃]
6C	Bセル温度	=	   21.7	[℃]
   	
 ========================== FO-29(ふじ3号)のQSO情報等 ======================
   
 3)[jamsat-bb:

 ===============================================================================
   4)JARL のホームページに運用予定が記載されていましたのでご紹介します.
       ( http://www.jarl.or.jp/Japanese/3_Fuji/new/uy.htm )

        ■ ふじ3号/FOー29/JAS-2 ■  
   
     *** 運用予定について ***

 7月2日(月) 〜 10月1日(月)アナログ系運用 


  *なお,運用予定は都合により変更することがありますので予めご了承願います。

 照会先 : lab@jarl.or.jp

 最新の情報はテレホンサービス(03−3942−1000)をお聞きください。  
 以後の運用につきましては平成13年10月上旬にお知らせ致します。
    
-----------------------    FO−20(JAS-1b)道要素   -------------------------
  5)
  ■ 軌道要素1 :出典はFO-29「ふじ3号」に同じ.
  
FO-20
1 20480U 90013C   01221.18536216 -.00000011  00000-0  46801-4 0  3322
2 20480  99.0544 279.6937 0539995 189.1461 169.9479 12.83295577538897
 
  ■ 軌道要素2 :出典はFO−29「ふじ3号」に同じ.
               
Satellite: FO-20
Catalog number: 20480
Epoch time:      01221.18536216
Element set:     332
Inclination:       99.0544 deg
RA of node:       279.6937 deg
Eccentricity:    0.0539995
Arg of perigee:   189.1461 deg
Mean anomaly:     169.9479 deg
Mean motion:   12.83295577 rev/day
Decay rate:       -1.1e-07 rev/day^2
Epoch rev:           53889
Checksum:              347

 --------------------------------------------------------------------------------
 
         ■ ふじ2号/FO−20/JAS-1b ■      
            
          「ふじ2号」 現況                                                                                  
             
   JAS-1b(ふじ2号)のCWテレメトリ信号に,1997年10月12日12時(JST)の
 日本上空通過時,3桁の数字が繰り返されるはずが3個の長音の繰り返しとなっているという
 異常が発見されました。この不具合は次の通過時からは回復していましたが13日15時20分の
 通過時に再び観測されました。現在はA0の送信が続いています。衛星のアナログ系中継モード
 動作は異常が無く,正常時のテレメトリ内容からは衛星の動作に異常は認められません。従って,
 直ちに衛星のミッションに影響することは無いと予想されますので,当面はアナログ系中継
 モードを継続します。衛星は既に打ち上げてから7年8ヶ月を経ておりますので,今後は監視を
 強化する予定です。アマチュア各位のレポートをお待ちします。
 -------------------------------------------------------------------------------- 
  1997年10月14日 00時35分 確認のテレメトリ音 151 KB (A0) 
  1997年10月14日 11時10分 確認のテレメトリ音 216 KB (異常キーイング) 

  以上 JARLのホ−ムページの http://www.jarl.or.jp/Japanese/3_Fuji/new/fuji.htm

===================== FO-20 ふじ2号 のテレメトリ観測結果 ====================

  7月19日(木)19:45(JST)の観測結果では以前観測した単一周波数の
ドップラー効果で周波数がずれていくのみの状態でした。
                                         
   =============   JAS-2 (ふじ3号)と現在までの情報   ===========
  
  A.電話によるふじ3号の運用情報
      社団法人日本アマチュア連盟によるサービス
           TEL .   03− 3942 − 1000
  B.アマチュア無線FAXサービス
      JARLによるふじ3号の軌道情報(オービットカレンダー)
         FAX No.  03− 3233 −0055
  C.WWWブラウザで情報を簡単に見れる人のためにJAS−2
     ふじ3号の衛星としての運用されるまでの名前)の概要、打ち上げ
     までの状況、運用中における状況を説明したホームページを紹介し
     ておきます.
     社団法人日本アマチュア無線連盟(JARL)のホームページ

          http://www.jarl.or.jp/Japanese/3_Fuji/jasmenu.htm
 
     宇宙開発事業団(NASDA)ホームページ 
          http://www.nasda.go.jp/
         打上げ衛星 :地球観測プラットフォーム技術衛星(ADEOS) 
                       アマチュア衛星3号(JAS-2)
          http://spaceboy.nasda.go.jp/note/eisei/j/Eis15h_j.html#Eis15h_01_j
     http://spaceboy.nasda.go.jp/note/eisei/j/Eis15i_j.html        

  D.JAMSATによる軌道情報の活用
        JAMSATのホームページまたはjamsat−kepsの軌道要素より
      衛星の軌道情報を得る.
     JAMSATホームページ
               URL    http://www.jamsat.or.jp
       上記ホームページでは各地で行われるアマチュア通信衛星に関する
      ミューティングのお知らせや世界のアマチュア衛星に関する情報が
      満載されています.
 ========================================================================  
     JAMSATのメンバーのご協力によりJH6MME(高山 秀造)が
    執筆・編集を担当しております.ご指摘の意見、疑問やこのようにしたら
    というアイデアがありましたら小さなことでもかまいませんので気軽に下
    記アドレスまでご連絡ください.jamsat−newsからjas2
    infoへの転載をJH4PHW局坂井さんに担当して頂いております.  
                  E-mail : jh6mme@jamsat.or.jp : jh4phw@jamsat.or.jp
 ===============================   END  ===============================